Regional Weather Roundup
Issued by NWS Sterling, VA

Home | Current Version | Previous Version | Graphics & Text | Print | Product List | Glossary On
Versions: 1 2 3 4 5 6 7 8 9 10 11 12 13 14 15 16 17 18 19 20 21 22 23 24 25 26 27 28 29 30 31 32 33 34 35 36 37 38 39 40 41 42 43 44 45 46 47 48 49 50
000
ASUS41 KLWX 200810
RWRLWX

REGIONAL WEATHER ROUNDUP
NATIONAL WEATHER SERVICE BALTIMORE MD/WASHINGTON DC
300 AM EST FRI JAN 20 2017

Note: "FAIR" indicates few or no clouds below 12,000 feet
with no significant weather and/or obstructions to visibility.
 TC=TEMPERATURE CELSIUS

 * =Non NWS site. Station does not report precipitation (e.g. rain,
    snow, etc.), thunder, or fog.

DCZ001-MDZ009-015-VAZ040>042-051-053>054-200900-
WASHINGTON METRO

CITY           SKY/WX    TMP DP  RH WIND       PRES   REMARKS
WASHINGTON NAT CLOUDY    41  39  93 CALM      30.02S
DULLES         MOCLDY    34  31  88 CALM      30.00R
ANDREWS AFB    CLOUDY    38  35  88 CALM      29.99F
FT BELVOIR     CLOUDY    34  32  94 CALM      30.00F
QUANTICO       CLOUDY    36  36 100 NW3       30.02F
COLLEGE PARK*  CLOUDY    34  32  93 CALM      30.01S
LEESBURG*      PTCLDY    36  36 100 MISG      30.00F
GAITHERSBURG*  CLOUDY    36  30  80 CALM      30.03S

$$

MDZ006>007-011-014-200900-
BALTIMORE METRO

CITY           SKY/WX    TMP DP  RH WIND       PRES   REMARKS
BWI AIRPORT    MOCLDY    34  32  92 CALM      30.01S
MD SCIENCE CTR   N/A     41  34  76 MISG      30.02S
ANNAPOLIS      CLOUDY    37  34  89 CALM      30.01S
FORT MEADE*    CLOUDY    32  32 100 CALM      30.03F

$$

MDZ012-015-019>023-200900-
MARYLAND EASTERN SHORE

CITY           SKY/WX    TMP DP  RH WIND       PRES   REMARKS
OCEAN CITY     MOCLDY    33  33 100 CALM      30.03R FOG
SALISBURY      CLOUDY    33  32  96 CALM      30.03R
BAY BRIDGE AP* PTCLDY    36  34  93 E3        30.01F
CAMBRIDGE*     CLOUDY    32  32 100 CALM      30.02S
EASTON*        MOCLDY    35  32  90 CALM      30.06S

$$

MDZ017>025-200900-
SOUTHERN MARYLAND

CITY           SKY/WX    TMP DP  RH WIND       PRES   REMARKS
PATUXENT RIVER CLOUDY    36  34  92 E3        30.01F
ST INIGOES     CLOUDY    35  33  92 CALM      30.00F
LEONARDTOWN*   PTCLDY    36  34  93 E3        30.01F

$$

MDZ003>005-200900-
NORTH CENTRAL MARYLAND

CITY           SKY/WX    TMP DP  RH WIND       PRES   REMARKS
FREDERICK*     CLOUDY    32  32 100 CALM      30.03S
HAGERSTOWN APT PTCLDY    38  32  79 NE5       29.96F
WESTMINSTER*     N/A     36  34  93 CALM      29.98F

$$

MDZ501>502-200900-
WESTERN MARYLAND

CITY           SKY/WX    TMP DP  RH WIND       PRES   REMARKS
OAKLAND*         N/A     34  32  93 SE14      29.84F WCI  24
CUMBERLAND*    PTCLDY    32  32 100 CALM      29.98S

$$

VAZ025>031-200900-
SHENANDOAH VALLEY

CITY           SKY/WX    TMP DP  RH WIND       PRES   REMARKS
WINCHESTER*    CLOUDY    34  32  93 NE5       29.94F
FRONT ROYAL*   CLOUDY    34  34 100 CALM      29.93F
LURAY*         CLOUDY    36  36 100 CALM      29.93F
NEW MARKET*    CLOUDY    35  33  95 CALM      29.93F
STAUNTON*      CLOUDY    38  37  94 CALM      29.95S
WAYNESBORO*    CLOUDY    45  37  75 SE3       29.92F

$$

WVZ021-048>050-054>055-200900-
EASTERN WEST VIRGINIA PANHANDLE

CITY           SKY/WX    TMP DP  RH WIND       PRES   REMARKS
MARTINSBURG    CLOUDY    35  31  85 CALM      29.97R
PETERSBURG*    MOCLDY    35  35  99 CALM      29.93F

$$

VAZ036>039-050-200900-
CENTRAL FOOTHILLS

CITY           SKY/WX    TMP DP  RH WIND       PRES   REMARKS
CHARLOTTESVILL CLOUDY    42  38  85 N3        29.95F
CULPEPER*      CLOUDY    34  34 100 CALM      29.99F
ORANGE*          N/A     37  37 100 CALM      29.99F
GORDONSVILLE*  MOSUNNY   37  37  99 CALM      29.97S
WARRENTON*     CLOUDY    32  29  90 CALM      29.98F FOG

$$

VAZ055>057-200900-
NORTH AND CENTRAL PIEDMONT

CITY           SKY/WX    TMP DP  RH WIND       PRES   REMARKS
FREDERICKSBRG* PTCLDY    37  37 100 CALM      29.99F
STAFFORD*      CLOUDY    34  34 100 CALM      30.03F

$$

NCZ024-NYZ072-PAZ021-071-VAZ022-071-200900-
OTHER REGIONAL OBSERVATIONS

CITY           SKY/WX    TMP DP  RH WIND       PRES   REMARKS
NEW YORK CITY  CLOUDY    41  31  67 E10       30.05S
PHILADELPHIA   CLOUDY    33  31  92 CALM      30.04F
PITTSBURGH     CLOUDY    34  34 100 E5        29.82F
ROANOKE        CLOUDY    47  39  74 S5        29.93F
RICHMOND       CLOUDY    41  38  89 SE6       29.99F
RALEIGH        CLOUDY    49  42  77 S5        29.97R

$$

ANZ530>537-200900-
MARINE OBSERVATIONS

STATION/POSITION TIME  TEMP    WIND        PRES
                       AIR SEA DIR/SP/G
                 (UTC) (F)     (DEG/KT/KT) (MB)
THOMAS PT LIGHT  0800   39 40  110/  6/  7   N/A
BALT KEY BRIDGE  0742   37      50/  4/  4 1016.5F
COVE POINT       0742   40     160/  5/  6 1017.0F
LEWISETTA        0742   42 44  210/  4/  5 1015.8F
SOLOMONS ISLAND  0748           90/  3/  4   N/A
PINEY POINT      0748          110/  6/  6   N/A

$$




USA.gov is the U.S. government's official web portal to all federal, state and local government web resources and services.